Location: *
(50.5492°N, 7.7469°E)
Time: 02:48:22
(UTC+00:00)

STARLINK-48 - Pass Details

Date: 21 October 2019
Orbit: 507 x 508 km, 53.0° (Epoch: 18 November)

Event Time Altitude Azimuth Distance (km) Brightness Sun altitude
Rises 17:50:49 0° 285° (WNW) 2,611 8.7 -14.2°
Reaches altitude 10° 17:53:02 10° 288° (WNW) 1,725 7.4 -14.5°
Maximum altitude 17:56:55 67° 12° (NNE) 553 3.5 -15.2°
Enters shadow 17:58:39 31° 86° (E) 916 4.2 -15.4°
